Weather reports worldwide

Advertisment
Visby Flygplats, Sweden (2590): temperature & dewpoint: 22.05.2020 23:00:00 - 28.05.2020 23:00:00 (CEST)Visby Flygplats, Sweden (2590): wind speed & gusts: 22.05.2020 23:00:00 - 28.05.2020 23:00:00 (CEST)Visby Flygplats, Sweden (2590): wind direction: 22.05.2020 23:00:00 - 28.05.2020 23:00:00 (CEST)Visby Flygplats, Sweden (2590): reduced air pressure: 22.05.2020 23:00:00 - 28.05.2020 23:00:00 (CEST)Visby Flygplats, Sweden (2590): visibility: 22.05.2020 23:00:00 - 28.05.2020 23:00:00 (CEST)Visby Flygplats, Sweden (2590): precipitation: 22.05.2020 23:00:00 - 28.05.2020 23:00:00 (CEST)
Date & Time tt [°C] td [°C] ff [km/h] ff [kn] fx [km/h] fx [kn] dd ppp [hPa] vv [km] rr [mm]
28.05.2020 23:00:00 5,2 3,5 5 3 11 6 S 1030,6 10 0,0
28.05.2020 22:00:00 7,2 5,8 8 4 14 8 N 1030,6 10 0,0
28.05.2020 21:00:00 9,7 7,1 11 6 14 8 N 1030,1 10 0,0
28.05.2020 20:00:00 12,5 3,4 11 6 18 10 N 1029,8 10 0,0
28.05.2020 19:00:00 14,5 1,4 13 7 22 12 NE 1029,5 10 0,0
28.05.2020 18:00:00 13,5 3,6 13 7 22 12 N 1029,8 10 0,0
28.05.2020 17:00:00 14,4 2,9 13 7 22 12 N 1029,8 10 0,0
28.05.2020 16:00:00 14,3 3,1 15 8 22 12 N 1030,0 10 0,0
28.05.2020 15:00:00 13,8 3,8 16 9 25 14 NNW 1030,2 10 0,0
28.05.2020 14:00:00 13,6 6,5 21 11 29 16 N 1030,2 10 0,0
28.05.2020 13:00:00 13,2 6,5 22 12 32 18 N 1030,1 10 0,0
28.05.2020 12:00:00 13,6 7,1 24 13 32 18 N 1029,8 10 0,0
28.05.2020 11:00:00 13,6 7,1 28 15 32 18 N 1029,6 10 0,0
28.05.2020 10:00:00 13,1 7,3 24 13 32 18 N 1029,4 10 0,0
28.05.2020 09:00:00 12,5 8,0 18 10 29 16 N 1028,9 10 0,0
28.05.2020 08:00:00 11,5 8,5 21 11 32 18 N 1028,6 10 0,0
28.05.2020 07:00:00 10,6 8,9 18 10 29 16 N 1028,2 10 0,0
28.05.2020 06:00:00 9,9 8,7 16 9 22 12 N 1027,8 10 0,0
28.05.2020 05:00:00 9,1 8,3 15 8 22 12 N 1027,4 10 0,0
28.05.2020 04:00:00 8,5 7,4 13 7 18 10 N 1026,8 10 0,0
28.05.2020 03:00:00 7,9 7,1 13 7 18 10 N 1026,8 10 0,0
28.05.2020 02:00:00 8,0 6,5 13 7 25 14 NNE 1026,7 10 0,0
28.05.2020 01:00:00 8,8 7,7 16 9 22 12 NNE 1026,3 10 0,0
28.05.2020 00:00:00 9,6 8,0 15 8 22 12 NNE 1026,0 10 0,0
27.05.2020 23:00:00 10,3 7,5 9 5 18 10 NNE 1025,6 10 0,0
27.05.2020 22:00:00 11,1 8,7 15 8 32 18 N 1025,2 10 0,0
27.05.2020 21:00:00 13,1 8,6 5 3 14 8 WNW 1024,5 10 0,0
27.05.2020 20:00:00 13,0 9,1 5 3 14 8 NNW 1024,2 10 0,0
27.05.2020 19:00:00 13,4 9,1 11 6 14 8 W 1024,2 10 0,0
27.05.2020 18:00:00 16,2 9,1 13 7 14 8 W 1024,1 10 0,0
27.05.2020 17:00:00 17,0 9,7 15 8 22 12 WSW 1024,4 10 0,0
27.05.2020 16:00:00 17,0 8,7 21 11 25 14 WSW 1024,9 10 0,0
27.05.2020 15:00:00 17,3 9,0 22 12 36 19 SW 1025,4 10 0,0
27.05.2020 14:00:00 17,1 9,5 26 14 36 19 SW 1025,9 10 0,0
27.05.2020 13:00:00 17,8 8,6 24 13 36 19 WSW 1026,2 10 0,0
27.05.2020 12:00:00 16,6 8,6 28 15 36 19 WSW 1026,8 10 0,0
27.05.2020 11:00:00 15,3 9,0 21 11 29 16 WSW 1027,2 10 0,0
27.05.2020 10:00:00 15,9 9,3 16 9 22 12 WSW 1027,8 10 0,0
27.05.2020 09:00:00 14,5 8,7 15 8 22 12 WSW 1028,4 10 0,0
27.05.2020 08:00:00 13,5 9,0 15 8 18 10 WSW 1028,8 10 0,0
27.05.2020 07:00:00 12,7 8,8 11 6 14 8 W 1029,1 10 0,0
27.05.2020 06:00:00 12,0 8,7 8 4 14 8 W 1029,3 10 0,0
27.05.2020 05:00:00 11,4 8,3 13 7 18 10 NW 1029,4 10 0,0
27.05.2020 04:00:00 11,4 8,4 13 7 18 10 W 1029,7 10 0,0
27.05.2020 03:00:00 11,6 7,9 15 8 25 14 WSW 1029,7 10 0,0
27.05.2020 02:00:00 12,6 7,3 18 10 25 14 SW 1029,9 10 0,0
27.05.2020 01:00:00 12,5 7,0 21 11 25 14 SSW 1030,3 10 0,0
27.05.2020 00:00:00 12,4 5,6 18 10 25 14 SW 1030,9 10 0,0
26.05.2020 23:00:00 10,8 6,2 15 8 22 12 SSW 1031,4 10 0,0
26.05.2020 22:00:00 10,9 6,6 15 8 18 10 SSW 1031,8 10 0,0
26.05.2020 21:00:00 11,7 6,6 11 6 18 10 SSW 1031,9 10 0,0
26.05.2020 20:00:00 14,9 7,0 13 7 22 12 WSW 1031,9 10 0,0
26.05.2020 19:00:00 15,8 6,8 16 9 25 14 WSW 1032,1 10 0,0
26.05.2020 18:00:00 16,4 6,2 18 10 25 14 WSW 1032,4 10 0,0
26.05.2020 17:00:00 16,3 7,2 18 10 25 14 WSW 1032,8 10 0,0
26.05.2020 16:00:00 17,0 6,8 16 9 22 12 W 1033,1 10 0,0
26.05.2020 15:00:00 16,2 6,6 16 9 22 12 W 1033,5 10 0,0
26.05.2020 14:00:00 15,7 6,7 16 9 29 16 WSW 1033,8 10 0,0
26.05.2020 13:00:00 15,2 6,5 15 8 22 12 W 1034,2 10 0,0
26.05.2020 12:00:00 14,3 6,1 14 8 18 10 WNW 1034,4 35 0,0
26.05.2020 11:00:00 14,2 7,3 9 5 14 8 WNW 1034,6 10 0,0
26.05.2020 10:00:00 14,2 7,3 5 3 11 6 - 1034,6 10 0,0
26.05.2020 09:00:00 13,2 7,8 4 2 11 6 - 1034,5 10 0,0
26.05.2020 08:00:00 9,2 9,1 4 2 11 6 - 1034,3 10 0,0
26.05.2020 07:00:00 6,6 6,5 4 2 11 6 - 1034,2 4,0 0,0
26.05.2020 06:00:00 6,0 5,9 4 2 14 8 - 1033,7 0,1 0,0
26.05.2020 05:00:00 5,9 5,8 11 6 14 8 NNW 1033,2 0,1 0,0
26.05.2020 04:00:00 6,0 5,7 5 3 7 4 N 1032,8 0,1 0,0
26.05.2020 03:00:00 6,3 6,0 5 3 14 8 NNE 1032,6 0,1 0,0
26.05.2020 02:00:00 6,8 6,7 9 5 14 8 N 1032,7 0,1 0,0
26.05.2020 01:00:00 7,1 6,8 5 3 11 6 NNE 1032,6 0,4 0,0
26.05.2020 00:00:00 7,1 6,8 5 3 14 8 - 1032,4 0,3 0,0
25.05.2020 23:00:00 6,9 6,6 9 5 14 8 N 1031,8 0,3 0,0
25.05.2020 22:00:00 6,9 6,6 9 5 22 12 NNE 1031,3 6 0,0
25.05.2020 21:00:00 7,3 7,0 13 7 18 10 N 1030,9 4,1 0,0
25.05.2020 20:00:00 7,5 7,1 15 8 22 12 N 1030,1 0,6 0,0
25.05.2020 19:00:00 10,1 8,0 16 9 22 12 N 1029,4 10 0,0
25.05.2020 18:00:00 10,2 8,0 13 7 22 12 N 1028,8 10 0,0
25.05.2020 17:00:00 12,0 8,3 15 8 25 14 N 1028,4 10 0,0
25.05.2020 16:00:00 13,1 9,2 21 11 29 16 N 1027,6 10 0,0
25.05.2020 15:00:00 12,4 9,0 24 13 36 19 N 1027,2 10 0,0
25.05.2020 14:00:00 12,8 9,1 21 11 29 16 N 1026,5 10 0,0
25.05.2020 13:00:00 11,4 8,6 15 8 25 14 N 1025,7 10 0,0
25.05.2020 12:00:00 13,2 9,6 16 9 25 14 N 1024,9 10 0,0
25.05.2020 11:00:00 14,1 9,3 13 7 25 14 NE 1024,2 10 0,0
25.05.2020 10:00:00 12,0 9,0 13 7 22 12 E 1023,6 10 0,0
25.05.2020 09:00:00 11,3 9,0 15 8 18 10 E 1022,4 10 0,0
25.05.2020 08:00:00 11,4 9,5 8 4 14 8 NE 1021,5 10 0,0
25.05.2020 07:00:00 10,6 9,4 5 3 14 8 N 1020,5 10 0,0
25.05.2020 06:00:00 9,3 8,8 0 0 4 2 N 1019,7 10 0,0
25.05.2020 05:00:00 8,0 7,6 0 0 4 2 N 1019,1 10 0,0
25.05.2020 04:00:00 8,0 7,4 4 2 7 4 W 1018,2 10 0,0
25.05.2020 03:00:00 7,9 7,3 4 2 7 4 W 1017,7 10 0,0
25.05.2020 02:00:00 8,2 7,4 0 0 4 2 N 1017,3 10 0,0
25.05.2020 01:00:00 8,8 8,0 5 3 4 2 W 1017,0 10 0,0
25.05.2020 00:00:00 8,0 6,9 2 1 7 4 SSW 1016,6 10 0,0
24.05.2020 23:00:00 7,8 6,7 2 1 7 4 ENE 1016,2 10 0,0
24.05.2020 22:00:00 10,8 8,4 5 3 7 4 W 1016,0 10 0,0
24.05.2020 21:00:00 10,8 8,4 5 3 14 8 SSW 1015,6 10 0,0
24.05.2020 20:00:00 11,9 7,8 13 7 22 12 SSW 1015,4 10 0,0
24.05.2020 19:00:00 14,6 7,2 15 8 25 14 SW 1014,9 10 0,0
24.05.2020 18:00:00 13,8 7,8 21 11 29 16 WSW 1014,8 10 0,0
24.05.2020 17:00:00 14,7 8,0 18 10 32 18 WSW 1014,6 10 0,0
24.05.2020 16:00:00 14,3 8,5 22 12 32 18 WSW 1014,6 10 0,0
24.05.2020 15:00:00 14,8 8,5 22 12 32 18 WSW 1014,6 10 0,0
24.05.2020 14:00:00 16,0 6,4 18 10 29 16 W 1014,5 10 0,0
24.05.2020 13:00:00 14,6 6,7 18 10 25 14 W 1015,0 10 0,0
24.05.2020 12:00:00 13,9 7,0 13 7 25 14 W 1015,2 10 0,0
24.05.2020 11:00:00 13,1 8,0 13 7 18 10 W 1015,3 10 0,0
24.05.2020 10:00:00 12,5 8,2 11 6 18 10 W 1015,4 10 0,0
24.05.2020 09:00:00 11,2 8,6 15 8 22 12 W 1015,4 10 0,0
24.05.2020 08:00:00 10,7 9,0 15 8 22 12 WSW 1015,3 10 0,0
24.05.2020 07:00:00 10,8 9,2 8 4 11 6 SW 1014,8 10 0,0
24.05.2020 06:00:00 8,4 8,0 9 5 14 8 SSW 1015,0 10 0,0
24.05.2020 05:00:00 7,4 7,0 11 6 14 8 S 1014,9 10 0,0
24.05.2020 04:00:00 7,4 7,0 13 7 14 8 SW 1014,9 10 0,0
24.05.2020 03:00:00 8,1 7,7 11 6 14 8 S 1015,0 9 0,0
24.05.2020 02:00:00 8,7 8,1 11 6 18 10 S 1014,8 9 0,0
24.05.2020 01:00:00 9,4 8,6 13 7 22 12 SW 1015,5 10 0,3
24.05.2020 00:00:00 9,3 8,8 13 7 22 12 SW 1015,7 5 0,0
23.05.2020 23:00:00 9,1 8,7 15 8 22 12 S 1015,2 2,5 0,0
23.05.2020 22:00:00 9,0 8,5 16 9 18 10 S 1015,5 5 0,0
23.05.2020 21:00:00 9,1 8,6 15 8 25 14 S 1015,2 4,1 0,0
23.05.2020 20:00:00 9,0 8,5 16 9 29 16 SSW 1014,9 6 0,0
23.05.2020 19:00:00 8,6 8,2 21 11 25 14 S 1015,0 3,3 0,0
23.05.2020 18:00:00 8,4 7,8 21 11 29 16 SSE 1015,6 3,1 0,3
23.05.2020 17:00:00 8,1 7,2 22 12 36 19 SSE 1016,0 4,2 0,2
23.05.2020 16:00:00 9,2 7,3 21 11 29 16 SSE 1016,5 10 0,5
23.05.2020 15:00:00 9,3 6,7 16 9 25 14 SE 1017,3 10 0,5
23.05.2020 14:00:00 10,1 6,6 15 8 25 14 SSE 1017,9 10 0,6
23.05.2020 13:00:00 11,4 3,7 18 10 29 16 SSE 1018,3 10 0,0
23.05.2020 12:00:00 11,9 2,4 18 10 36 19 S 1019,1 10 0,0
23.05.2020 11:00:00 11,6 1,8 24 13 36 19 S 1019,0 10 0,0
23.05.2020 10:00:00 10,9 0,0 21 11 32 18 SSE 1019,5 10 0,0
23.05.2020 09:00:00 10,5 0,5 24 13 36 19 SSE 1019,9 10 0,0
23.05.2020 08:00:00 9,8 2,4 22 12 32 18 SSE 1020,2 10 0,0
23.05.2020 07:00:00 8,6 2,8 21 11 29 16 SSE 1020,8 10 0,0
23.05.2020 06:00:00 7,1 2,2 18 10 25 14 SSE 1021,3 10 0,0
23.05.2020 05:00:00 6,0 2,5 18 10 22 12 SE 1021,6 10 0,0
23.05.2020 04:00:00 6,2 2,8 16 9 22 12 SE 1022,0 10 0,0
23.05.2020 03:00:00 6,4 3,2 18 10 22 12 SSE 1022,5 10 0,0
23.05.2020 02:00:00 6,4 2,8 18 10 22 12 SSE 1022,8 10 0,0
23.05.2020 01:00:00 5,6 2,2 15 8 14 8 S 1022,8 10 0,0
23.05.2020 00:00:00 5,9 1,2 15 8 18 10 SSE 1023,1 10 0,0
22.05.2020 23:00:00 6,0 0,5 15 8 18 10 SSE 1023,4 10 0,0

tt = temperature
td = dewpoint
ff = wind speed
fx = gusts
dd = wind direction
ppp = reduced air pressure
vv = visibility
rr = precipitation

Next stations